QTR295 EDDN-EGKK

Flight info

Callsign QTR295
Flight time 1h 21m
Altitude 40000
Route SULUS1G SULUS L604 MAPOX DCT GALSO Q63 ARREK Y4 TEBRA
Aircraft A35K/H-SDE2E3GHIJ3J4J5LM1ORWXY/LB1D1

Departure

Time 2026-05-07 19:56
Airport Nuremberg Airport (EDDN)

Arrival

Time 2026-05-07 21:18
Airport London Gatwick Airport (EGKK)
Time Latitude Longitude Altitude Speed Heading
2026-05-07 19:33 49.49548 11.07664 1034 ft 0 kts 188°
2026-05-07 19:46 49.49547 11.07664 1034 ft 0 kts 188°
2026-05-07 19:46 49.49558 11.07666 1034 ft 2 kts 181°
2026-05-07 19:46 49.49573 11.07666 1034 ft 2 kts 181°
2026-05-07 19:47 49.49589 11.07667 1036 ft 3 kts 167°
2026-05-07 19:47 49.49605 11.07657 1036 ft 3 kts 134°
2026-05-07 19:47 49.49611 11.07648 1037 ft 0 kts 117°
2026-05-07 19:47 49.49611 11.07647 1037 ft 0 kts 115°
2026-05-07 19:49 49.49608 11.07658 1037 ft 3 kts 113°
2026-05-07 19:49 49.49596 11.07717 1036 ft 8 kts 103°
2026-05-07 19:50 49.49584 11.07819 1036 ft 10 kts 99°
2026-05-07 19:50 49.49571 11.07935 1037 ft 12 kts 101°
2026-05-07 19:50 49.49558 11.08073 1038 ft 14 kts 98°
2026-05-07 19:50 49.49549 11.08174 1038 ft 1 kts 98°
2026-05-07 19:51 49.49547 11.08196 1039 ft 3 kts 98°
2026-05-07 19:51 49.49542 11.08243 1039 ft 5 kts 97°
2026-05-07 19:51 49.49547 11.08295 1041 ft 3 kts 58°
2026-05-07 19:51 49.49564 11.08320 1042 ft 4 kts 40°
2026-05-07 19:52 49.49592 11.08356 1042 ft 9 kts 46°
2026-05-07 19:52 49.49607 11.08523 1044 ft 22 kts 95°
2026-05-07 19:52 49.49578 11.08816 1049 ft 33 kts 98°
2026-05-07 19:52 49.49545 11.09163 1054 ft 31 kts 99°
2026-05-07 19:53 49.49536 11.09264 1057 ft 0 kts 96°
2026-05-07 19:53 49.49535 11.09268 1057 ft 1 kts 96°
2026-05-07 19:53 49.49535 11.09271 1057 ft 0 kts 96°
2026-05-07 19:53 49.49535 11.09275 1057 ft 0 kts 96°
2026-05-07 19:54 49.49535 11.09278 1057 ft 1 kts 95°
2026-05-07 19:54 49.49535 11.09307 1058 ft 6 kts 86°
2026-05-07 19:55 49.49554 11.09391 1061 ft 11 kts 61°
2026-05-07 19:55 49.49615 11.09524 1065 ft 20 kts 43°
2026-05-07 19:55 49.49709 11.09451 1065 ft 0 kts 283°
2026-05-07 19:55 49.49715 11.09374 1061 ft 17 kts 277°
2026-05-07 19:56 49.49774 11.08772 1047 ft 108 kts 279°
2026-05-07 19:56 49.49933 11.07168 1264 ft 179 kts 278°
2026-05-07 19:56 49.50120 11.05172 2255 ft 199 kts 279°
2026-05-07 19:56 49.50333 11.02887 3007 ft 231 kts 280°
2026-05-07 19:57 49.50585 11.00355 4268 ft 244 kts 280°
2026-05-07 19:57 49.50846 10.97717 5703 ft 260 kts 279°
2026-05-07 19:57 49.51248 10.94876 6552 ft 292 kts 291°
2026-05-07 19:57 49.52505 10.92110 6921 ft 337 kts 316°
2026-05-07 19:58 49.54624 10.90152 6996 ft 387 kts 338°
2026-05-07 19:58 49.57160 10.89462 6989 ft 356 kts 360°
2026-05-07 19:58 49.59502 10.90202 6998 ft 334 kts 16°
2026-05-07 19:58 49.61653 10.91204 6988 ft 311 kts 12°
2026-05-07 19:59 49.63683 10.91866 7222 ft 285 kts
2026-05-07 19:59 49.65611 10.92284 7638 ft 279 kts
2026-05-07 19:59 49.67548 10.92311 8320 ft 278 kts 350°
2026-05-07 19:59 49.69426 10.91694 9265 ft 276 kts 343°
2026-05-07 20:00 49.71282 10.90878 10079 ft 279 kts 341°
2026-05-07 20:00 49.73182 10.89983 10512 ft 294 kts 341°
2026-05-07 20:00 49.74502 10.89344 10741 ft 306 kts 341°
2026-05-07 20:00 49.77321 10.87957 11187 ft 329 kts 340°
2026-05-07 20:01 49.79557 10.86850 11520 ft 345 kts 341°
2026-05-07 20:01 49.81878 10.85698 11955 ft 355 kts 340°
2026-05-07 20:01 49.84252 10.84518 12539 ft 360 kts 340°
2026-05-07 20:01 49.86620 10.83339 13146 ft 365 kts 340°
2026-05-07 20:02 49.89048 10.82127 13744 ft 369 kts 340°
2026-05-07 20:02 49.90705 10.81299 14115 ft 371 kts 340°
2026-05-07 20:02 49.93980 10.79660 14885 ft 375 kts 340°
2026-05-07 20:02 49.95662 10.78818 15282 ft 377 kts 340°
2026-05-07 20:03 49.98991 10.77148 16029 ft 382 kts 340°
2026-05-07 20:03 50.01532 10.75871 16593 ft 385 kts 340°
2026-05-07 20:03 50.03258 10.75003 16995 ft 387 kts 340°
2026-05-07 20:03 50.05818 10.73632 17547 ft 390 kts 336°
2026-05-07 20:04 50.08170 10.71545 18106 ft 391 kts 321°
2026-05-07 20:04 50.10206 10.68798 18623 ft 393 kts 315°
2026-05-07 20:04 50.12138 10.65766 19102 ft 396 kts 312°
2026-05-07 20:04 50.14019 10.62601 19579 ft 399 kts 311°
2026-05-07 20:05 50.15893 10.59383 20063 ft 402 kts 311°
2026-05-07 20:05 50.17786 10.56150 20533 ft 406 kts 311°
2026-05-07 20:05 50.19740 10.52852 20991 ft 409 kts 312°
2026-05-07 20:05 50.21664 10.49636 21456 ft 412 kts 312°
2026-05-07 20:06 50.23632 10.46373 21929 ft 415 kts 313°
2026-05-07 20:06 50.25642 10.43112 22389 ft 418 kts 313°
2026-05-07 20:06 50.27678 10.39849 22852 ft 421 kts 313°
2026-05-07 20:06 50.29733 10.36568 23306 ft 424 kts 313°
2026-05-07 20:07 50.31803 10.33257 23753 ft 427 kts 313°
2026-05-07 20:07 50.33881 10.29921 24125 ft 429 kts 313°
2026-05-07 20:07 50.35964 10.26558 24528 ft 431 kts 313°
2026-05-07 20:07 50.37961 10.23046 24929 ft 433 kts 309°
2026-05-07 20:08 50.39920 10.19460 25323 ft 434 kts 311°
2026-05-07 20:08 50.41965 10.15973 25726 ft 435 kts 313°
2026-05-07 20:08 50.44064 10.12549 26127 ft 436 kts 313°
2026-05-07 20:08 50.46177 10.09095 26546 ft 439 kts 313°
2026-05-07 20:09 50.48270 10.05581 26944 ft 443 kts 312°
2026-05-07 20:09 50.50363 10.02011 27389 ft 445 kts 311°
2026-05-07 20:09 50.52452 9.98422 27830 ft 447 kts 311°
2026-05-07 20:10 50.56628 9.91102 28703 ft 452 kts 310°
2026-05-07 20:10 50.58641 9.87289 29165 ft 455 kts 309°
2026-05-07 20:10 50.60637 9.83417 29607 ft 457 kts 308°
2026-05-07 20:10 50.62644 9.79508 30079 ft 460 kts 308°
2026-05-07 20:11 50.64665 9.75591 30483 ft 462 kts 309°
2026-05-07 20:11 50.66713 9.71649 30892 ft 465 kts 309°
2026-05-07 20:11 50.68777 9.67701 31292 ft 468 kts 309°
2026-05-07 20:11 50.70849 9.63737 31705 ft 470 kts 309°
2026-05-07 20:12 50.72936 9.59740 32119 ft 472 kts 309°
2026-05-07 20:12 50.75026 9.55746 32535 ft 473 kts 309°
2026-05-07 20:12 50.77124 9.51731 32971 ft 474 kts 309°
2026-05-07 20:12 50.79221 9.47709 33406 ft 475 kts 309°
2026-05-07 20:13 50.81321 9.43673 33864 ft 475 kts 308°
2026-05-07 20:13 50.83420 9.39635 34258 ft 474 kts 308°
2026-05-07 20:13 50.85509 9.35608 34639 ft 474 kts 308°
2026-05-07 20:13 50.87598 9.31577 35005 ft 473 kts 308°
2026-05-07 20:14 50.89682 9.27546 35398 ft 473 kts 308°
2026-05-07 20:14 50.91765 9.23513 35773 ft 473 kts 308°
2026-05-07 20:14 50.93850 9.19470 36060 ft 475 kts 308°
2026-05-07 20:15 50.98006 9.11390 36106 ft 476 kts 308°
2026-05-07 20:15 51.02194 9.03226 36103 ft 477 kts 308°
2026-05-07 20:16 51.06381 8.95037 36104 ft 477 kts 308°
2026-05-07 20:16 51.10530 8.86787 36110 ft 477 kts 304°
2026-05-07 20:17 51.13612 8.77512 36109 ft 474 kts 288°
2026-05-07 20:17 51.15250 8.67356 36104 ft 474 kts 281°
2026-05-07 20:18 51.16576 8.57069 36112 ft 474 kts 281°
2026-05-07 20:18 51.17861 8.46766 36110 ft 474 kts 280°
2026-05-07 20:19 51.19163 8.36457 36103 ft 474 kts 281°
2026-05-07 20:19 51.20472 8.26150 36103 ft 474 kts 281°
2026-05-07 20:20 51.21775 8.15853 36106 ft 474 kts 280°
2026-05-07 20:20 51.23069 8.05531 36105 ft 474 kts 280°
2026-05-07 20:21 51.24351 7.95225 36100 ft 474 kts 280°
2026-05-07 20:21 51.25626 7.84893 36098 ft 474 kts 280°
2026-05-07 20:22 51.26891 7.74570 36098 ft 474 kts 280°
2026-05-07 20:22 51.28145 7.64248 36099 ft 474 kts 279°
2026-05-07 20:23 51.29391 7.53916 36099 ft 473 kts 279°
2026-05-07 20:23 51.30626 7.43594 36094 ft 473 kts 279°
2026-05-07 20:24 51.31851 7.33272 36095 ft 473 kts 279°
2026-05-07 20:24 51.33068 7.22937 36092 ft 473 kts 279°
2026-05-07 20:25 51.34276 7.12595 36088 ft 473 kts 279°
2026-05-07 20:25 51.35473 7.02260 36085 ft 472 kts 279°
2026-05-07 20:26 51.36654 6.91983 36085 ft 472 kts 279°
2026-05-07 20:26 51.37844 6.81545 36086 ft 472 kts 279°
2026-05-07 20:27 51.39004 6.71287 36083 ft 473 kts 278°
2026-05-07 20:27 51.40166 6.60923 36082 ft 473 kts 278°
2026-05-07 20:28 51.41317 6.50564 36079 ft 473 kts 278°
2026-05-07 20:28 51.42460 6.40196 36079 ft 473 kts 278°
2026-05-07 20:29 51.43594 6.29827 36078 ft 473 kts 278°
2026-05-07 20:29 51.44719 6.19443 36078 ft 472 kts 278°
2026-05-07 20:30 51.45833 6.09077 36076 ft 471 kts 278°
2026-05-07 20:30 51.46936 5.98715 36078 ft 471 kts 278°
2026-05-07 20:31 51.48030 5.88353 36079 ft 471 kts 278°
2026-05-07 20:31 51.49116 5.77971 36076 ft 471 kts 278°
2026-05-07 20:32 51.50192 5.67598 36068 ft 471 kts 278°
2026-05-07 20:32 51.51258 5.57222 36068 ft 471 kts 278°
2026-05-07 20:33 51.52309 5.46897 36067 ft 471 kts 278°
2026-05-07 20:33 51.53357 5.36515 36067 ft 471 kts 277°
2026-05-07 20:34 51.54396 5.26121 36074 ft 471 kts 277°
2026-05-07 20:34 51.55426 5.15727 36074 ft 471 kts 277°
2026-05-07 20:35 51.56446 5.05330 36076 ft 471 kts 277°
2026-05-07 20:35 51.57457 4.94927 36076 ft 471 kts 277°
2026-05-07 20:36 51.58458 4.84531 36070 ft 471 kts 277°
2026-05-07 20:36 51.59450 4.74127 36077 ft 470 kts 277°
2026-05-07 20:37 51.60432 4.63726 36081 ft 470 kts 277°
2026-05-07 20:37 51.61404 4.53334 36075 ft 470 kts 277°
2026-05-07 20:38 51.62367 4.42927 36079 ft 470 kts 277°
2026-05-07 20:38 51.63321 4.32519 36073 ft 470 kts 277°
2026-05-07 20:39 51.64266 4.22108 36079 ft 470 kts 277°
2026-05-07 20:39 51.65195 4.11766 36082 ft 470 kts 277°
2026-05-07 20:40 51.66120 4.01353 36071 ft 470 kts 276°
2026-05-07 20:40 51.67037 3.90938 36080 ft 470 kts 276°
2026-05-07 20:41 51.67944 3.80514 36076 ft 469 kts 276°
2026-05-07 20:41 51.68840 3.70110 36081 ft 468 kts 276°
2026-05-07 20:42 51.69727 3.59707 36075 ft 468 kts 276°
2026-05-07 20:42 51.70603 3.49314 36076 ft 468 kts 276°
2026-05-07 20:43 51.71471 3.38906 36084 ft 468 kts 276°
2026-05-07 20:43 51.72323 3.28570 36092 ft 467 kts 276°
2026-05-07 20:44 51.72990 3.18158 36089 ft 466 kts 269°
2026-05-07 20:44 51.72471 3.07770 36088 ft 465 kts 262°
2026-05-07 20:45 51.71600 2.97436 35860 ft 463 kts 261°
2026-05-07 20:45 51.71134 2.92291 35625 ft 464 kts 261°
2026-05-07 20:45 51.70665 2.87138 35375 ft 464 kts 261°
2026-05-07 20:45 51.70200 2.82001 35060 ft 462 kts 261°
2026-05-07 20:46 51.69740 2.76892 34414 ft 460 kts 261°
2026-05-07 20:46 51.69282 2.71786 33581 ft 461 kts 261°
2026-05-07 20:46 51.68825 2.66680 32767 ft 460 kts 261°
2026-05-07 20:46 51.68371 2.61581 31989 ft 459 kts 261°
2026-05-07 20:47 51.67916 2.56506 31157 ft 459 kts 261°
2026-05-07 20:47 51.67458 2.51408 30322 ft 460 kts 261°
2026-05-07 20:47 51.66999 2.46307 29360 ft 460 kts 261°
2026-05-07 20:47 51.66537 2.41213 28593 ft 457 kts 261°
2026-05-07 20:48 51.66075 2.36184 27994 ft 451 kts 261°
2026-05-07 20:48 51.65617 2.31225 27403 ft 445 kts 261°
2026-05-07 20:48 51.65161 2.26329 26804 ft 440 kts 261°
2026-05-07 20:48 51.64709 2.21488 26194 ft 435 kts 261°
2026-05-07 20:49 51.64259 2.16692 25620 ft 431 kts 261°
2026-05-07 20:49 51.63811 2.11939 25036 ft 427 kts 261°
2026-05-07 20:49 51.63518 2.08815 24662 ft 425 kts 261°
2026-05-07 20:49 51.62939 2.02562 23884 ft 420 kts 261°
2026-05-07 20:50 51.62655 1.99492 23474 ft 418 kts 261°
2026-05-07 20:50 51.62232 1.94894 22861 ft 414 kts 261°
2026-05-07 20:50 51.61807 1.90336 22289 ft 409 kts 260°
2026-05-07 20:50 51.61121 1.85932 21725 ft 404 kts 250°
2026-05-07 20:51 51.59921 1.81886 21154 ft 400 kts 238°
2026-05-07 20:51 51.58310 1.78256 20586 ft 397 kts 232°
2026-05-07 20:51 51.56545 1.74863 20016 ft 394 kts 229°
2026-05-07 20:51 51.54712 1.71605 19450 ft 392 kts 228°
2026-05-07 20:52 51.52889 1.68372 18883 ft 390 kts 228°
2026-05-07 20:52 51.51081 1.65143 18298 ft 388 kts 228°
2026-05-07 20:52 51.49377 1.61800 17658 ft 385 kts 236°
2026-05-07 20:52 51.48144 1.58023 17092 ft 381 kts 247°
2026-05-07 20:53 51.47212 1.54105 16512 ft 378 kts 249°
2026-05-07 20:53 51.46307 1.50113 15935 ft 375 kts 249°
2026-05-07 20:53 51.45429 1.46254 15363 ft 372 kts 249°
2026-05-07 20:53 51.44537 1.42373 14788 ft 370 kts 248°
2026-05-07 20:54 51.43432 1.38686 14198 ft 365 kts 236°
2026-05-07 20:54 51.41776 1.35636 13886 ft 369 kts 220°
2026-05-07 20:54 51.39716 1.33037 13799 ft 381 kts 216°
2026-05-07 20:54 51.37544 1.30478 14006 ft 381 kts 216°
2026-05-07 20:55 51.35471 1.28044 14076 ft 370 kts 216°
2026-05-07 20:55 51.33413 1.25624 14088 ft 366 kts 216°
2026-05-07 20:55 51.31359 1.23208 14083 ft 366 kts 216°
2026-05-07 20:55 51.29309 1.20795 14087 ft 367 kts 216°
2026-05-07 20:56 51.27254 1.18377 14087 ft 367 kts 216°
2026-05-07 20:56 51.25197 1.15958 14086 ft 367 kts 216°
2026-05-07 20:56 51.23142 1.13543 14087 ft 367 kts 216°
2026-05-07 20:56 51.21087 1.11131 14085 ft 367 kts 216°
2026-05-07 20:57 51.19030 1.08720 14083 ft 367 kts 216°
2026-05-07 20:57 51.16973 1.06310 14097 ft 367 kts 216°
2026-05-07 20:57 51.14917 1.03904 14098 ft 367 kts 216°
2026-05-07 20:57 51.12862 1.01503 14097 ft 367 kts 216°
2026-05-07 20:58 51.10800 0.99096 14098 ft 367 kts 216°
2026-05-07 20:58 51.08743 0.96698 14099 ft 367 kts 216°
2026-05-07 20:58 51.06711 0.94244 14103 ft 367 kts 220°
2026-05-07 20:58 51.05095 0.91120 14062 ft 368 kts 239°
2026-05-07 20:59 51.03943 0.87496 14045 ft 368 kts 244°
2026-05-07 20:59 51.02865 0.83798 14031 ft 368 kts 244°
2026-05-07 20:59 51.01799 0.80153 14018 ft 356 kts 244°
2026-05-07 20:59 51.00779 0.76695 14008 ft 336 kts 244°
2026-05-07 21:00 50.99803 0.73409 13845 ft 323 kts 243°
2026-05-07 21:00 50.98853 0.70228 13439 ft 317 kts 243°
2026-05-07 21:00 50.97908 0.67070 12877 ft 317 kts 243°
2026-05-07 21:00 50.97144 0.63800 12359 ft 316 kts 255°
2026-05-07 21:01 50.96758 0.60391 11875 ft 313 kts 261°
2026-05-07 21:01 50.96497 0.56975 11403 ft 311 kts 262°
2026-05-07 21:01 50.96267 0.53575 10934 ft 308 kts 263°
2026-05-07 21:01 50.96048 0.50204 10449 ft 306 kts 263°
2026-05-07 21:02 50.95835 0.46851 9974 ft 305 kts 264°
2026-05-07 21:02 50.95626 0.43523 9451 ft 303 kts 264°
2026-05-07 21:02 50.95419 0.40214 8919 ft 301 kts 264°
2026-05-07 21:02 50.95213 0.36922 8396 ft 299 kts 264°
2026-05-07 21:03 50.95009 0.33660 8046 ft 296 kts 264°
2026-05-07 21:03 50.94805 0.30416 7979 ft 296 kts 264°
2026-05-07 21:03 50.94658 0.27151 7983 ft 297 kts 270°
2026-05-07 21:03 50.95041 0.23953 7999 ft 297 kts 288°
2026-05-07 21:04 50.95640 0.20831 7997 ft 296 kts 282°
2026-05-07 21:04 50.95959 0.17607 8002 ft 296 kts 276°
2026-05-07 21:04 50.96201 0.14359 8010 ft 296 kts 276°
2026-05-07 21:04 50.96434 0.11120 8020 ft 296 kts 276°
2026-05-07 21:05 50.96663 0.07897 7830 ft 292 kts 276°
2026-05-07 21:05 50.96891 0.04697 7332 ft 292 kts 276°
2026-05-07 21:05 50.97118 0.01543 7101 ft 292 kts 276°
2026-05-07 21:05 50.97348 -0.01675 7071 ft 292 kts 276°
2026-05-07 21:06 50.97561 -0.04779 7063 ft 273 kts 276°
2026-05-07 21:06 50.97757 -0.07673 7064 ft 255 kts 276°
2026-05-07 21:06 50.97941 -0.10385 7067 ft 242 kts 276°
2026-05-07 21:06 50.98118 -0.13013 7072 ft 240 kts 276°
2026-05-07 21:07 50.98295 -0.15637 7074 ft 239 kts 276°
2026-05-07 21:07 50.98472 -0.18268 7072 ft 239 kts 276°
2026-05-07 21:07 50.98649 -0.20893 7072 ft 239 kts 276°
2026-05-07 21:07 50.98825 -0.23517 7072 ft 239 kts 276°
2026-05-07 21:08 50.99001 -0.26147 7073 ft 239 kts 276°
2026-05-07 21:08 50.99177 -0.28772 7073 ft 239 kts 276°
2026-05-07 21:08 50.99353 -0.31397 7073 ft 239 kts 276°
2026-05-07 21:08 50.99528 -0.34023 7072 ft 239 kts 276°
2026-05-07 21:09 50.99703 -0.36650 7075 ft 239 kts 276°
2026-05-07 21:09 50.99877 -0.39273 7051 ft 238 kts 276°
2026-05-07 21:09 51.00048 -0.41863 6767 ft 235 kts 276°
2026-05-07 21:09 51.00216 -0.44460 6347 ft 238 kts 276°
2026-05-07 21:10 51.00386 -0.47098 5923 ft 240 kts 276°
2026-05-07 21:10 51.00690 -0.49696 5499 ft 241 kts 291°
2026-05-07 21:10 51.01557 -0.51680 5131 ft 241 kts 319°
2026-05-07 21:10 51.02992 -0.53011 4804 ft 237 kts 338°
2026-05-07 21:11 51.04406 -0.53893 4652 ft 229 kts 340°
2026-05-07 21:11 51.05868 -0.54752 4504 ft 219 kts 341°
2026-05-07 21:11 51.08681 -0.55972 4199 ft 201 kts 350°
2026-05-07 21:12 51.10040 -0.56386 3973 ft 197 kts 351°
2026-05-07 21:12 51.11379 -0.56791 3678 ft 195 kts 351°
2026-05-07 21:12 51.12714 -0.56816 3340 ft 192 kts 19°
2026-05-07 21:12 51.13775 -0.55666 3032 ft 183 kts 58°
2026-05-07 21:13 51.14102 -0.53785 2995 ft 178 kts 97°
2026-05-07 21:13 51.13724 -0.51960 2994 ft 177 kts 117°
2026-05-07 21:13 51.13118 -0.50240 2993 ft 179 kts 120°
2026-05-07 21:13 51.12476 -0.48543 2991 ft 179 kts 120°
2026-05-07 21:14 51.11828 -0.46850 2992 ft 179 kts 121°
2026-05-07 21:14 51.11231 -0.45115 2972 ft 180 kts 107°
2026-05-07 21:14 51.11320 -0.43124 3026 ft 190 kts 73°
2026-05-07 21:14 51.11721 -0.41074 2905 ft 195 kts 75°
2026-05-07 21:15 51.12048 -0.39001 2642 ft 191 kts 79°
2026-05-07 21:15 51.12314 -0.36952 2369 ft 188 kts 79°
2026-05-07 21:15 51.12597 -0.34960 2109 ft 182 kts 78°
2026-05-07 21:15 51.12866 -0.33053 1837 ft 169 kts 79°
2026-05-07 21:16 51.13111 -0.31284 1623 ft 160 kts 79°
2026-05-07 21:16 51.13350 -0.29567 1401 ft 158 kts 79°
2026-05-07 21:16 51.13587 -0.27866 1180 ft 156 kts 79°
2026-05-07 21:16 51.13814 -0.26236 961 ft 145 kts 78°
2026-05-07 21:17 51.14026 -0.24720 763 ft 136 kts 78°
2026-05-07 21:17 51.14228 -0.23263 592 ft 134 kts 78°
2026-05-07 21:17 51.14431 -0.21808 407 ft 134 kts 78°
2026-05-07 21:17 51.14633 -0.20356 248 ft 134 kts 79°
2026-05-07 21:18 51.14818 -0.19006 220 ft 107 kts 78°
2026-05-07 21:18 51.14919 -0.18302 219 ft 24 kts 77°
2026-05-07 21:18 51.14964 -0.18042 223 ft 24 kts 67°
2026-05-07 21:18 51.15048 -0.17822 224 ft 12 kts 51°
2026-05-07 21:19 51.15051 -0.17817 214 ft 0 kts 49°
2026-05-07 21:19 51.15053 -0.17813 223 ft 3 kts 49°
2026-05-07 21:20 51.15086 -0.17779 218 ft 9 kts 18°
2026-05-07 21:20 51.15160 -0.17771 219 ft 13 kts 356°
2026-05-07 21:20 51.15230 -0.17763 218 ft 0 kts 25°
2026-05-07 21:22 51.15242 -0.17749 222 ft 4 kts 36°
2026-05-07 21:22 51.15263 -0.17696 222 ft 7 kts 65°
2026-05-07 21:22 51.15281 -0.17604 211 ft 10 kts 76°
2026-05-07 21:22 51.15283 -0.17590 211 ft 0 kts 75°
2026-05-07 21:23 51.15288 -0.17561 213 ft 5 kts 76°
2026-05-07 21:23 51.15297 -0.17490 213 ft 8 kts 79°
2026-05-07 21:24 51.15327 -0.17402 222 ft 10 kts 31°
2026-05-07 21:24 51.15402 -0.17397 220 ft 12 kts 352°
2026-05-07 21:24 51.15497 -0.17427 215 ft 16 kts 348°
2026-05-07 21:24 51.15581 -0.17455 220 ft 0 kts 347°
2026-05-07 21:25 51.15591 -0.17459 217 ft 4 kts 347°
2026-05-07 21:25 51.15630 -0.17473 221 ft 8 kts 347°
2026-05-07 21:25 51.15697 -0.17497 220 ft 12 kts 345°
2026-05-07 21:25 51.15741 -0.17592 222 ft 12 kts 275°
2026-05-07 21:26 51.15729 -0.17735 217 ft 14 kts 258°
2026-05-07 21:26 51.15705 -0.17907 221 ft 17 kts 257°
2026-05-07 21:26 51.15688 -0.18043 218 ft 0 kts 261°
2026-05-07 21:26 51.15688 -0.18044 218 ft 0 kts 261°
2026-05-07 21:27 51.15702 -0.18077 227 ft 8 kts 316°
2026-05-07 21:27 51.15728 -0.18077 222 ft 3 kts 13°
2026-05-07 21:27 51.15763 -0.18071 220 ft 7 kts
2026-05-07 21:27 51.15791 -0.18074 218 ft 0 kts 354°
2026-05-07 21:28 51.15800 -0.18076 218 ft 4 kts 353°
2026-05-07 21:28 51.15818 -0.18079 217 ft 0 kts 352°
2026-05-07 21:28 51.15826 -0.18081 216 ft 3 kts 352°
2026-05-07 21:28 51.15865 -0.18093 219 ft 8 kts 348°
2026-05-07 21:29 51.15933 -0.18116 217 ft 12 kts 347°
2026-05-07 21:29 51.15989 -0.18136 218 ft 1 kts 346°
2026-05-07 21:29 51.16003 -0.18153 216 ft 4 kts 316°
2026-05-07 21:29 51.16011 -0.18200 219 ft 0 kts 274°
2026-05-07 21:31 51.16014 -0.18235 218 ft 5 kts 282°
2026-05-07 21:31 51.16042 -0.18297 220 ft 1 kts 315°
2026-05-07 21:32 51.16045 -0.18301 222 ft 0 kts 316°